EW4628 Weather Reports


Display with metric or nautical units.
time (UTC)temp
F
wind
direction
speed
MPH
gust
MPH
rain 1hr
in
rain 24hr
in
rain mn
in
humidity
%
barometer
mb
20190918195202 79 244 5.0 13.0 0.00 0.00 0.00 54 1011.2
20190918194703 79 260 3.0 8.0 0.00 0.00 0.00 53 1011.2
20190918194202 79 152 3.0 10.0 0.00 0.00 0.00 54 1011.3
20190918193701 78 296 4.0 10.0 0.00 0.00 0.00 56 1011.3
20190918193234 78 286 4.0 11.0 0.00 0.00 0.00 57 1011.4
20190918192702 78 282 4.0 11.0 0.00 0.00 0.00 56 1011.3
20190918192203 78 196 4.0 8.0 0.00 0.00 0.00 57 1011.4
20190918191701 78 202 4.0 10.0 0.00 0.00 0.00 56 1011.4
20190918191156 78 257 4.0 10.0 0.00 0.00 0.00 57 1011.5
20190918190656 78 196 4.0 10.0 0.00 0.00 0.00 56 1011.6
20190918190154 78 233 4.0 10.0 0.00 0.00 0.00 57 1011.6
20190918185655 78 248 4.0 10.0 0.00 0.00 0.00 57 1011.7
20190918185154 77 203 5.0 10.0 0.00 0.00 0.00 60 1011.7
20190918184655 76 237 4.0 10.0 0.00 0.00 0.00 59 1011.8
20190918184155 76 277 3.0 6.0 0.00 0.00 0.00 61 1011.9
20190918183649 76 242 3.0 9.0 0.00 0.00 0.00 61 1011.9
20190918183141 76 227 4.0 9.0 0.00 0.00 0.00 61 1012.0
20190918182635 76 202 4.0 7.0 0.00 0.00 0.00 63 1012.0
20190918182131 75 261 4.0 9.0 0.00 0.00 0.00 63 1012.0
20190918181623 75 288 4.0 9.0 0.00 0.00 0.00 64 1012.0
20190918181120 75 215 4.0 9.0 0.00 0.00 0.00 66 1012.0
20190918180620 75 204 4.0 9.0 0.00 0.00 0.00 67 1012.2
20190918180120 74 276 3.0 9.0 0.00 0.00 0.00 67 1012.2
20190918175621 74 240 3.0 9.0 0.00 0.00 0.00 68 1012.3
20190918175118 74 197 3.0 9.0 0.00 0.00 0.00 70 1012.2
20190918174617 74 234 3.0 9.0 0.00 0.00 0.00 70 1012.2
20190918174117 73 214 3.0 8.0 0.00 0.00 0.00 73 1012.3
20190918173609 73 234 4.0 9.0 0.00 0.00 0.00 73 1012.3
20190918173110 73 271 4.0 9.0 0.00 0.00 0.00 75 1012.3
20190918172611 72 260 3.0 7.0 0.00 0.00 0.00 76 1012.4
20190918172108 72 248 4.0 9.0 0.00 0.00 0.00 77 1012.4
20190918171608 71 244 4.0 9.0 0.00 0.00 0.00 78 1012.5
20190918171044 71 296 3.0 6.0 0.00 0.00 0.00 79 1012.4
20190918171040 71 246 3.0 7.0 0.00 0.00 0.00 79 1012.4
20190918170035 71 260 2.0 6.0 0.00 0.00 0.00 80 1012.4
20190918165530 71 306 2.0 4.0 0.00 0.00 0.00 80 1012.5
20190918165019 70 198 2.0 4.0 0.00 0.00 0.00 81 1012.5
20190918164514 69 246 2.0 5.0 0.00 0.00 0.00 83 1012.5
20190918164009 69 246 2.0 6.0 0.00 0.00 0.00 82 1012.5
20190918163509 69 244 2.0 6.0 0.00 0.00 0.00 82 1012.4
20190918163013 69 254 1.0 4.0 0.00 0.00 0.00 82 1012.3
20190918162458 69 315 1.0 3.0 0.00 0.00 0.00 84 1012.3
20190918161957 69 315 1.0 3.0 0.00 0.00 0.00 84 1012.4
20190918161456 68 315 0.0 3.0 0.00 0.00 0.00 85 1012.4
20190918160949 68 61 0.0 2.0 0.00 0.00 0.00 86 1012.4
20190918160417 67 61 1.0 3.0 0.00 0.00 0.00 88 1012.4
20190918155858 66 37 2.0 3.0 0.00 0.00 0.00 89 1012.5
20190918155356 66 54 1.0 4.0 0.00 0.00 0.00 90 1012.5
20190918154858 65 41 1.0 4.0 0.00 0.00 0.00 90 1012.6
20190918154347 65 67 0.0 0.0 0.00 0.00 0.00 91 1012.6
20190918153850 65 67 0.0 0.0 0.00 0.00 0.00 91 1012.6
20190918153346 65 86 0.0 0.0 0.00 0.00 0.00 92 1012.6
20190918152842 65 86 0.0 0.0 0.00 0.00 0.00 92 1012.5
20190918152334 65 90 0.0 0.0 0.00 0.00 0.00 92 1012.5
20190918151822 65 106 0.0 0.0 0.00 0.00 0.00 92 1012.5
20190918151239 65 106 0.0 3.0 0.00 0.00 0.00 93 1012.5
20190918150735 65 106 0.0 3.0 0.00 0.00 0.00 92 1012.5
20190918150227 64 106 0.0 0.0 0.00 0.00 0.00 92 1012.5
20190918145717 64 106 0.0 0.0 0.00 0.00 0.00 92 1012.5
20190918145212 64 106 0.0 0.0 0.00 0.00 0.00 93 1012.5
20190918144710 64 53 0.0 0.0 0.00 0.00 0.00 93 1012.4
20190918144205 64 53 0.0 0.0 0.00 0.00 0.00 93 1012.3
20190918144201 64 53 0.0 0.0 0.00 0.00 0.00 93 1012.4
20190918143146 64 53 1.0 3.0 0.00 0.00 0.00 93 1012.3
20190918142610 64 53 1.0 3.0 0.00 0.00 0.00 93 1012.3
20190918142034 64 58 0.0 3.0 0.00 0.00 0.00 93 1012.2
20190918141515 64 58 0.0 3.0 0.00 0.00 0.00 93 1012.2
20190918141014 64 63 0.0 0.0 0.00 0.00 0.00 93 1012.1
20190918140504 64 63 0.0 0.0 0.00 0.00 0.00 93 1012.0
20190918135940 63 63 0.0 0.0 0.00 0.00 0.00 93 1011.9
20190918135403 63 63 0.0 0.0 0.00 0.00 0.00 93 1011.9
20190918134830 63 63 0.0 0.0 0.00 0.00 0.00 93 1011.8
20190918134330 63 63 0.0 0.0 0.00 0.00 0.00 93 1011.8
20190918133812 63 63 0.0 0.0 0.00 0.00 0.00 92 1011.8
20190918133310 63 63 0.0 0.0 0.00 0.00 0.00 92 1011.7
20190918132806 63 63 0.0 0.0 0.00 0.00 0.00 92 1011.7
20190918132252 63 63 0.0 0.0 0.00 0.00 0.00 92 1011.6
20190918131744 63 63 0.0 0.0 0.00 0.00 0.00 92 1011.5
20190918131238 63 63 0.0 0.0 0.00 0.00 0.00 92 1011.4
20190918130738 63 63 0.0 0.0 0.00 0.00 0.00 92 1011.4
20190918130220 63 63 0.0 0.0 0.00 0.00 0.00 92 1011.2
20190918125710 63 63 0.0 0.0 0.00 0.00 0.00 92 1011.2
20190918125208 63 63 0.0 0.0 0.00 0.00 0.00 91 1011.2
20190918124652 64 63 0.0 0.0 0.00 0.00 0.00 92 1011.1
20190918124130 64 63 0.0 0.0 0.00 0.00 0.00 92 1011.2
20190918123628 64 63 0.0 0.0 0.00 0.00 0.00 92 1011.1
20190918123128 64 63 0.0 0.0 0.00 0.00 0.00 92 1011.1
20190918122613 63 63 0.0 0.0 0.00 0.00 0.00 92 1011.0
20190918122114 63 63 0.0 0.0 0.00 0.00 0.00 92 1011.0
20190918121621 63 63 0.0 0.0 0.00 0.00 0.00 92 1011.0
20190918121059 63 63 0.0 0.0 0.00 0.00 0.00 92 1011.0
20190918120558 63 63 0.0 0.0 0.00 0.00 0.00 92 1011.0
20190918120020 63 63 0.0 0.0 0.00 0.00 0.00 92 1010.9
20190918115512 63 63 0.0 0.0 0.00 0.00 0.00 92 1010.9
20190918115012 63 63 0.0 0.0 0.00 0.00 0.00 92 1010.9
20190918114508 63 63 0.0 0.0 0.00 0.00 0.00 91 1010.8
20190918113956 63 63 0.0 0.0 0.00 0.00 0.00 91 1010.9
20190918113446 63 63 0.0 0.0 0.00 0.00 0.00 91 1011.0
20190918112942 63 63 0.0 0.0 0.00 0.00 0.00 90 1011.0
20190918112442 63 63 0.0 0.0 0.00 0.00 0.00 90 1011.0
20190918111914 63 63 0.0 0.0 0.00 0.00 0.00 90 1011.0
20190918111416 63 63 0.0 0.0 0.00 0.00 0.00 90 1011.0
20190918110917 64 63 0.0 0.0 0.00 0.00 0.00 90 1010.8
20190918110404 64 63 0.0 2.0 0.00 0.00 0.00 90 1010.8
20190918105856 64 63 0.0 2.0 0.00 0.00 0.00 90 1010.8
20190918105346 64 63 0.0 0.0 0.00 0.00 0.00 90 1010.8
20190918104829 64 63 0.0 0.0 0.00 0.00 0.00 90 1010.8
20190918104328 64 63 0.0 0.0 0.00 0.00 0.00 90 1010.8
20190918103810 64 63 0.0 0.0 0.00 0.00 0.00 90 1010.9
20190918103256 64 63 0.0 0.0 0.00 0.00 0.00 90 1010.8
20190918102750 63 63 0.0 0.0 0.00 0.00 0.00 89 1010.8
20190918102242 63 64 0.0 0.0 0.00 0.00 0.00 89 1010.9
20190918101757 63 64 0.0 0.0 0.00 0.00 0.00 89 1010.9
20190918101219 63 64 0.0 0.0 0.00 0.00 0.00 89 1010.9
20190918100720 63 64 0.0 2.0 0.00 0.00 0.00 89 1010.9
20190918100156 63 64 1.0 2.0 0.00 0.00 0.00 88 1010.9
20190918095638 63 64 1.0 2.0 0.00 0.00 0.00 88 1010.9
20190918095127 63 64 0.0 0.0 0.00 0.00 0.00 88 1011.0
20190918094608 64 64 0.0 0.0 0.00 0.00 0.00 88 1010.9
20190918094100 64 64 0.0 2.0 0.00 0.00 0.00 88 1011.0
20190918093558 64 64 0.0 2.0 0.00 0.00 0.00 88 1011.0
20190918093052 64 57 0.0 0.0 0.00 0.00 0.00 88 1011.0
20190918092548 65 57 0.0 0.0 0.00 0.00 0.00 88 1010.9
20190918092049 65 57 0.0 0.0 0.00 0.00 0.00 89 1010.9
20190918091520 65 57 0.0 1.0 0.00 0.00 0.00 89 1010.9
20190918091013 65 57 0.0 3.0 0.00 0.00 0.00 89 1010.8
20190918090512 65 57 0.0 3.0 0.00 0.00 0.00 89 1010.9
20190918090009 65 91 0.0 1.0 0.00 0.00 0.00 89 1010.9
20190918085518 65 91 1.0 2.0 0.00 0.00 0.00 89 1010.9
20190918084938 65 91 1.0 2.0 0.00 0.00 0.00 89 1010.9
20190918084439 65 91 1.0 3.0 0.00 0.00 0.00 88 1010.9
20190918083929 65 91 1.0 3.0 0.00 0.00 0.00 89 1010.9
20190918083428 65 134 0.0 0.0 0.00 0.00 0.00 88 1010.9
20190918082917 65 205 0.0 0.0 0.00 0.00 0.00 88 1010.9
20190918082416 65 205 0.0 0.0 0.00 0.00 0.00 87 1011.0
20190918081909 65 205 0.0 0.0 0.00 0.00 0.00 87 1011.0
20190918081401 66 205 0.0 0.0 0.00 0.00 0.00 87 1010.9
20190918080850 66 205 0.0 0.0 0.00 0.00 0.00 87 1010.9
20190918080328 66 205 0.0 0.0 0.00 0.00 0.00 87 1010.9
20190918075828 66 205 0.0 0.0 0.00 0.00 0.00 87 1010.9
20190918075305 66 205 0.0 0.0 0.00 0.00 0.00 87 1010.9
20190918074801 66 205 0.0 0.0 0.00 0.00 0.00 87 1010.9
20190918074240 66 205 0.0 0.0 0.00 0.00 0.00 87 1010.9
20190918073713 66 205 0.0 0.0 0.00 0.00 0.00 87 1010.9
20190918073158 67 205 0.0 0.0 0.00 0.00 0.00 86 1010.9
20190918072621 67 205 0.0 0.0 0.00 0.00 0.00 86 1011.0
20190918072111 67 205 0.0 0.0 0.00 0.00 0.00 86 1011.0
20190918071605 67 205 0.0 0.0 0.00 0.00 0.00 86 1011.0
20190918071101 67 205 0.0 0.0 0.00 0.00 0.00 86 1011.0
20190918070549 67 205 0.0 0.0 0.00 0.00 0.00 85 1011.1
20190918070041 67 205 0.0 0.0 0.00 0.00 0.00 85 1011.2
20190918065539 67 205 0.0 0.0 0.00 0.00 0.00 85 1011.2
20190918065041 67 205 0.0 0.0 0.00 0.00 0.00 84 1011.3
20190918064502 68 205 0.0 0.0 0.00 0.00 0.00 84 1011.3
20190918063918 68 205 0.0 0.0 0.00 0.00 0.00 84 1011.4
20190918063413 68 205 0.0 0.0 0.00 0.00 0.00 83 1011.3
20190918062852 68 205 0.0 0.0 0.00 0.00 0.00 84 1011.3
20190918062313 68 205 0.0 0.0 0.00 0.00 0.00 84 1011.3
20190918061814 68 205 0.0 0.0 0.00 0.00 0.00 84 1011.3
20190918061312 68 205 0.0 0.0 0.00 0.00 0.00 84 1011.3
20190918060810 68 205 0.0 0.0 0.00 0.00 0.00 84 1011.3
20190918060309 68 205 0.0 0.0 0.00 0.00 0.00 84 1011.2
20190918055810 68 205 0.0 0.0 0.00 0.00 0.00 83 1011.2
20190918055304 68 205 0.0 0.0 0.00 0.00 0.00 83 1011.3
20190918054800 68 205 0.0 0.0 0.00 0.00 0.00 82 1011.3
20190918054241 68 205 0.0 0.0 0.00 0.00 0.00 82 1011.3
20190918053732 69 205 0.0 0.0 0.00 0.00 0.00 82 1011.3
20190918053208 69 205 0.0 0.0 0.00 0.00 0.00 81 1011.3
20190918052700 69 205 0.0 0.0 0.00 0.00 0.00 81 1011.2
20190918052156 69 205 0.0 0.0 0.00 0.00 0.00 81 1011.2
20190918051654 69 205 0.0 0.0 0.00 0.00 0.00 80 1011.2
20190918051114 69 205 0.0 0.0 0.00 0.00 0.00 80 1011.2
20190918050610 69 205 0.0 0.0 0.00 0.00 0.00 80 1011.2
20190918050102 70 205 0.0 0.0 0.00 0.00 0.00 80 1011.3
20190918045602 70 205 0.0 0.0 0.00 0.00 0.00 80 1011.3
20190918045054 70 205 0.0 0.0 0.00 0.00 0.00 80 1011.3
20190918044548 70 205 0.0 2.0 0.00 0.00 0.00 80 1011.3
20190918044018 70 205 1.0 3.0 0.00 0.00 0.00 80 1011.3
20190918043516 70 205 1.0 3.0 0.00 0.00 0.00 80 1011.2
20190918043016 70 205 1.0 3.0 0.00 0.00 0.00 80 1011.2
20190918042514 70 205 0.0 3.0 0.00 0.00 0.00 80 1011.2
20190918042014 70 205 0.0 0.0 0.00 0.00 0.00 80 1011.2
20190918041512 70 205 0.0 0.0 0.00 0.00 0.00 79 1011.2
20190918040958 70 205 0.0 0.0 0.00 0.00 0.00 79 1011.1
20190918040446 70 205 0.0 0.0 0.00 0.00 0.00 79 1011.1
20190918035945 70 205 0.0 0.0 0.00 0.00 0.00 78 1011.1
20190918035438 70 205 0.0 0.0 0.00 0.00 0.00 78 1011.1
20190918034936 70 205 0.0 0.0 0.00 0.00 0.00 78 1011.1
20190918034432 70 205 0.0 0.0 0.00 0.00 0.00 77 1011.1
20190918033904 71 205 1.0 2.0 0.00 0.00 0.00 77 1011.1
20190918033405 71 205 2.0 5.0 0.00 0.00 0.00 77 1011.1
20190918032859 71 205 2.0 5.0 0.00 0.00 0.00 76 1011.0
20190918032355 71 205 3.0 6.0 0.00 0.00 0.00 76 1011.0
20190918031855 71 217 3.0 6.0 0.00 0.00 0.00 76 1011.0
20190918031357 71 202 3.0 6.0 0.00 0.00 0.00 76 1011.0
20190918030849 71 192 3.0 6.0 0.00 0.00 0.00 76 1011.0
20190918030348 71 240 3.0 7.0 0.00 0.00 0.00 77 1011.0
20190918025848 71 244 4.0 7.0 0.00 0.00 0.00 77 1010.9
20190918025340 72 227 4.0 7.0 0.00 0.00 0.00 77 1010.9
20190918024836 72 242 5.0 10.0 0.00 0.00 0.00 77 1010.8
20190918024336 72 264 5.0 10.0 0.00 0.00 0.00 76 1010.7
20190918023836 72 222 4.0 8.0 0.00 0.00 0.00 75 1010.6
20190918023334 73 219 4.0 7.0 0.00 0.00 0.00 75 1010.6
20190918022835 73 222 4.0 7.0 0.00 0.00 0.00 74 1010.6
20190918022336 73 217 5.0 7.0 0.00 0.00 0.00 74 1010.6
20190918021835 74 208 4.0 7.0 0.00 0.00 0.00 73 1010.5
20190918021331 74 222 4.0 9.0 0.00 0.00 0.00 72 1010.5
20190918020830 74 234 4.0 9.0 0.00 0.00 0.00 71 1010.4
20190918020334 74 252 5.0 9.0 0.00 0.00 0.00 69 1010.5
20190918015830 74 242 5.0 10.0 0.00 0.00 0.00 68 1010.4
20190918015329 75 254 4.0 10.0 0.00 0.00 0.00 68 1010.4
20190918014829 75 204 5.0 9.0 0.00 0.00 0.00 67 1010.4
20190918014328 76 239 5.0 10.0 0.00 0.00 0.00 65 1010.4
20190918013828 76 167 5.0 10.0 0.00 0.00 0.00 63 1010.4
20190918013328 76 213 4.0 9.0 0.00 0.00 0.00 62 1010.4
20190918012828 77 182 4.0 9.0 0.00 0.00 0.00 60 1010.4
20190918012329 77 203 5.0 9.0 0.00 0.00 0.00 59 1010.4
20190918011829 77 205 4.0 10.0 0.00 0.00 0.00 57 1010.4
20190918011323 77 181 4.0 11.0 0.00 0.00 0.00 57 1010.4
20190918010823 77 188 5.0 11.0 0.00 0.00 0.00 57 1010.4
20190918010323 78 223 5.0 9.0 0.00 0.00 0.00 55 1010.4
20190918005820 78 190 5.0 9.0 0.00 0.00 0.00 54 1010.4
20190918005320 78 205 5.0 9.0 0.00 0.00 0.00 54 1010.5
20190918004820 78 202 6.0 11.0 0.00 0.00 0.00 54 1010.5
20190918004321 78 252 6.0 11.0 0.00 0.00 0.00 55 1010.5
20190918003821 78 221 5.0 12.0 0.00 0.00 0.00 55 1010.5
20190918003317 79 199 5.0 12.0 0.00 0.00 0.00 54 1010.5
20190918002818 79 200 4.0 12.0 0.00 0.00 0.00 54 1010.5
20190918002317 79 191 5.0 12.0 0.00 0.00 0.00 55 1010.5
20190918001818 79 217 7.0 13.0 0.00 0.00 0.00 54 1010.5
20190918001310 79 205 7.0 13.0 0.00 0.00 0.00 53 1010.5
20190918000804 80 258 7.0 13.0 0.00 0.00 0.00 53 1010.5
20190918000304 80 254 5.0 11.0 0.00 0.00 0.00 52 1010.5
20190917235805 80 217 5.0 13.0 0.00 0.00 0.00 52 1010.5
20190917235304 80 196 6.0 13.0 0.00 0.00 0.00 52 1010.5
20190917234805 80 180 5.0 11.0 0.00 0.00 0.00 50 1010.5
20190917234300 80 202 5.0 11.0 0.00 0.00 0.00 50 1010.5
20190917233802 81 186 6.0 10.0 0.00 0.00 0.00 50 1010.5
20190917233301 81 259 5.0 11.0 0.00 0.00 0.00 50 1010.4
20190917232758 81 210 6.0 12.0 0.00 0.00 0.00 48 1010.4
20190917232303 81 205 6.0 12.0 0.00 0.00 0.00 48 1010.5
20190917231757 81 254 4.0 10.0 0.00 0.00 0.00 48 1010.5
20190917231257 81 190 4.0 10.0 0.00 0.00 0.00 47 1010.5
20190917230754 81 243 5.0 10.0 0.00 0.00 0.00 46 1010.6
20190917230256 81 236 5.0 10.0 0.00 0.00 0.00 47 1010.6
20190917225752 81 168 5.0 11.0 0.00 0.00 0.00 49 1010.6
20190917225253 81 283 6.0 11.0 0.00 0.00 0.00 49 1010.7
20190917224747 80 243 6.0 13.0 0.00 0.00 0.00 52 1010.8
20190917224244 81 279 7.0 14.0 0.00 0.00 0.00 52 1010.8
20190917223742 80 250 7.0 14.0 0.00 0.00 0.00 55 1010.9
20190917223242 81 245 6.0 11.0 0.00 0.00 0.00 55 1010.9
20190917222744 81 225 6.0 16.0 0.00 0.00 0.00 55 1011.0
20190917222740 81 232 6.0 16.0 0.00 0.00 0.00 54 1011.0
20190917222257 81 183 6.0 13.0 0.00 0.00 0.00 54 1011.1
20190917221241 81 190 6.0 13.0 0.00 0.00 0.00 54 1011.1
20190917220741 81 281 7.0 14.0 0.00 0.00 0.00 53 1011.2
20190917220239 81 233 7.0 17.0 0.00 0.00 0.00 55 1011.4
20190917215739 81 246 7.0 17.0 0.00 0.00 0.00 54 1011.4
20190917215239 81 262 7.0 13.0 0.00 0.00 0.00 55 1011.4
20190917214738 81 243 6.0 15.0 0.00 0.00 0.00 54 1011.4
20190917214235 81 261 6.0 15.0 0.00 0.00 0.00 56 1011.4
20190917213735 81 178 6.0 12.0 0.00 0.00 0.00 55 1011.6
20190917213234 81 272 6.0 14.0 0.00 0.00 0.00 54 1011.7
20190917212735 81 309 7.0 14.0 0.00 0.00 0.00 55 1011.7
20190917212233 81 223 6.0 12.0 0.00 0.00 0.00 53 1011.7
20190917211735 82 209 5.0 12.0 0.00 0.00 0.00 55 1011.8
20190917211237 80 248 6.0 13.0 0.00 0.00 0.00 55 1011.9
20190917210734 80 313 6.0 13.0 0.00 0.00 0.00 55 1011.9
20190917210223 81 304 6.0 12.0 0.00 0.00 0.00 54 1012.0
20190917205722 81 164 5.0 12.0 0.00 0.00 0.00 55 1012.0
20190917205222 80 251 6.0 16.0 0.00 0.00 0.00 56 1012.0
20190917204722 79 252 7.0 16.0 0.00 0.00 0.00 56 1012.1
20190917204222 80 259 7.0 14.0 0.00 0.00 0.00 55 1012.1
20190917203720 80 244 6.0 14.0 0.00 0.00 0.00 55 1012.1
20190917203215 80 254 7.0 14.0 0.00 0.00 0.00 55 1012.1
20190917202716 80 219 7.0 14.0 0.00 0.00 0.00 56 1012.2
20190917202217 80 200 7.0 14.0 0.00 0.00 0.00 56 1012.1
20190917201715 79 276 7.0 14.0 0.00 0.00 0.00 56 1012.3
20190917201216 79 265 7.0 15.0 0.00 0.00 0.00 55 1012.3
20190917200712 80 258 6.0 15.0 0.00 0.00 0.00 54 1012.4
20190917200212 80 243 5.0 11.0 0.00 0.00 0.00 52 1012.4
20190917195713 80 235 6.0 12.0 0.00 0.00 0.00 49 1012.5